Voltar ao catálogo

COSMOS 1275 DEB

AtivoPO
NORAD 39938·DEBRIS·🇷🇺 Russia

Lançado Jun 4, 1981 de Plesetsk Cosmodrome

Loading…

Próximas Passagens (próximas 24 horas)

TLE

AtualizadoSource: Space-Track

Época: Sep 13, 2026, 09:49 UTC

1 39938U 81053MY  26256.40962453  .00000696  00000-0  73704-3 0  9998
2 39938  83.0684  50.5981 0132795  86.0782 275.5541 13.69232880611312

Acompanhe COSMOS 1275 DEB em tempo real com AllMySat

Download on the App Store